www.pogodaiklimat.ru

Погода и климат >> Архив погоды >> Гондурас >> Yoro


ПОГОДА в Yoro

  • Прогноз погоды в Yoro
  • Монитор погоды в Yoro
  • Климат города

АРХИВ ПОГОДЫ в Yoro

Время (UTC), дата Ветер
(напр.,м/с)
 
Видим.   Явления Облачность Т
(С)
Тd
(С)
f
(%)
Тe
(С)
Тes
(С)
Комфортность P
(гПа)
Po
(гПа)
Тmin
(С)
Tmax
(С)
R
(мм)
R24
(мм)
S
(см)
00 14.06 В 2 10 км мгла {туман} 8/4 700 м
[Cu med, cong Ac As]
+26.0 +21.9 78 +33 +33 очень
душно
1013.1 938.6 +19.0 +29.0
12 14.06 З 1 10 км дымка 9/5 600 м
[Sc Ac As]
+21.2 +21.1 99 +27 +27 душно 1014.4 938.9 +19.2 +29.0
15 14.06 З 3 10 км мгла {туман} 8/5 660 м
[Cu med, cong Ac trans]
+24.2 +21.4 84 +31 +34 очень
душно
1015.0 940.1
18 14.06 З 3 10 км мгла {туман} 8/4 700 м
[Cu med, cong Ac As]
+27.2 +22.0 73 +35 +41 очень
душно
1015.4 939.5 +19.2 +27.2
00 15.06 Ю 3 15 км гроза без осадков {туман} 8/5 700 м
[Cb cap Ac cuf]
+24.0 +20.6 81 +30 +30 очень
душно
1012.8 937.5 +19.2 +29.6
15 15.06 З 3 10 км мгла {туман} 8/5 660 м
[Cu med, cong Ac trans]
+25.2 +22.2 83 +33 +36 очень
душно
1015.0 939.5
18 15.06 В 2 10 км осадки на расстоянии {туман} 6/6 700 м
[Cu med, cong]
+27.0 +22.1 75 +35 +44 очень
душно
1013.4 939.1 +19.0 +27.0
21 15.06 З 3 10 км морось {туман} 9/6 700 м
[Cu med, cong Ac As]
+23.0 +21.6 92 +31 +33 очень
душно
1013.7 938.9 1
00 16.06 Ю 2 10 км осадки на расстоянии {морось, туман} 9/5 600 м
[Sc Ac As]
+22.4 +21.3 94 +29 +29 очень
душно
1014.1 938.8 +19.0 +27.0 4
12 16.06 В 1 10 км дымка 8/4 600 м
[Sc Ac trans]
+19.8 +19.7 99 +24 +24 комфорт 1014.7 939.0 +19.4 +27.0
15 16.06 З 3 10 км мгла {туман} 6/4 600 м
[Sc diur, vesp Ac trans]
+24.0 +22.1 89 +31 +37 очень
душно
1014.1 939.2
18 16.06 С 2 10 км мгла {туман} 5/5 700 м
[Cu med, cong]
+27.8 +21.8 70 +36 +47 очень
душно
1013.4 938.9 +19.4 +27.8
00 17.06 Ю 2 10 км гроза без осадков {дождь} 8/5 700 м
[Cb cap Ac cuf]
+23.8 +21.6 87 +30 +30 очень
душно
1013.9 938.5 +19.4 +28.0 2
12 17.06 штиль 0 20 км дымка 6/6 600 м
[Sc]
+20.4 +20.1 98 +24 +25 комфорт 1015.5 939.2 +19.8 +28.0 12
15 17.06 З 1 10 км мгла {туман} 5/5 700 м
[Sc diur, vesp]
+24.2 +21.1 83 +31 +38 очень
душно
1014.4 939.4
18 17.06 10 км мгла {туман} н/о +27.4 +21.6 71 1013.6 938.8 +19.8 +27.4
21 17.06 штиль 0 10 км мгла {туман} 8/5 700 м
[Cb cap Ac cuf]
+27.0 +21.8 73 +35 +39 очень
душно
1012.5 938.2
00 18.06 В 1 10 км гроза без осадков {туман} 8/5 700 м
[Cb cap Ac cuf]
+26.4 +22.0 77 +34 +34 очень
душно
1012.8 938.2 +19.8 +38.4
12 18.06 штиль 0 20 км дымка 6/6 600 м
[Sc]
+20.2 +20.2 100 +24 +24 комфорт 1015.5 939.7 +19.6 +28.4 9
15 18.06 В 1 10 км мгла {туман} 6/6 600 м
[Sc diur, vesp]
+23.0 +20.8 87 +30 +36 очень
душно
1014.7 939.7
18 18.06 З 3 10 км мгла {туман} 4/4 750 м
[Cu med, cong]
+28.0 +21.4 67 +35 +46 очень
душно
1012.3 938.5 +19.6 +28.0
21 18.06 З 2 10 км мгла {туман} 5/5 750 м
[Cu med, cong]
+31.0 +21.3 56 +39 +44 очень
душно
1011.5 938.0
00 19.06 В 1 10 км мгла {туман} 5/5 750 м
[Cu med, cong]
+29.0 +21.3 63 +37 +37 очень
душно
1012.0 938.0 +19.6 +32.0
12 19.06 0 дымка н/о 1015.7 939.7 +18.4 +32.0
15 19.06 З 2 10 км мгла {туман} 4/4 700 м
[Cu med, cong]
+25.6 +21.2 77 +32 +41 очень
душно
1014.1 939.3
18 19.06 штиль 0 10 км мгла {туман} 5/5 750 м
[Cu med, cong]
+29.0 +20.5 60 +36 +50 очень
душно
1012.0 938.2 +18.4 +29.0
21 19.06 З 2 10 км мгла {туман} 6/6 750 м
[Cu med, cong]
+30.8 +20.2 53 +37 +42 очень
душно
1010.7 937.6
00 20.06 В 1 10 км мгла {туман} 4/4 750 м
[Cu med, cong]
+28.4 +21.2 65 +36 +36 очень
душно
1011.2 937.3 +18.4 +31.0
12 20.06 штиль 0 10 км дымка 4/4 600 м
[Sc]
+18.0 +17.7 98 +18 +18 1016.0 939.8 +17.6 +31.0
15 20.06 З 1 10 км мгла {туман} 8/4 700 м
[Sc diur, vesp Cs]
+26.0 +21.0 74 +33 +41 очень
душно
1013.1 938.6
18 20.06 З 2 10 км мгла {туман} 5/5 750 м
[Cu med, cong]
+30.2 +20.8 57 1011.8 +17.6 +30.2
21 20.06 СВ 2 10 км гроза без осадков {туман} 6/6 720 м
[Cb cap]
+29.6 +21.4 61 +37 +42 очень
душно
1011.0 937.2

 

Местоположение метеостанции Yoro (Гондурас): широта 15.17 долгота -87.11 высота над уровнем моря 670 м.

В архиве по умолчанию представлена погода в Yoro за последнюю неделю. Архивные данные за месяц целиком и за предыдущие месяцы, начиная с января 2011 года, Вы можете получить, выбрав интересующий диапазон дат из раскрывающегося списка и нажав кнопку "Ввод!".


*Определитесь, кто Вы:
робот инопланетянин человек

Внимание! Время в таблицах - всемирное. Для получения местного времени необходимо прибавить поправку, которая в Yoro равна -6 ч.

Смотрите также архив погоды в соседних городах и на ближайших метеорологических станциях:

Погода в La Ceiba (Гондурас) (68 км)
Погода в Tela (Гондурас) (73 км)
Погода в La Mesa (Гондурас) (93 км)
Погода в Tegucigalpa (Гондурас) (125 км)
Погода в Catacamas (Гондурас) (130 км)
Погода в Roatan (Гондурас) (143 км)
Погода в La Esperanza (Гондурас) (147 км)
Погода в Trujillo (Гондурас) (152 км)
Погода в Puerto Barrios (Гватемала) (171 км)
Погода в Santa Rosa De Copan (Гондурас) (185 км)

Пояснения к столбцам:

Ветер - указаны скорость ветра в м/с - средняя за 10 мин, порывы в срок и между сроками (в фигурных скобках) и направление, откуда дует ветер: С - северный, СВ - северо-восточный, В - восточный, ЮВ - юго-восточный, Ю - южный, ЮЗ - юго-западный, З - западный, СЗ - северо-западный.
Видимость - горизонтальная дальность видимости в метрах или километрах. При видимости от 1 до 10 км при отсутствии осадков обычно наблюдается дымка, при ухудшении видимости до 1 км и менее - туман. В сухую погоду видимость может ухудшаться дымом, пылью или мглою.
Явления - указаны атмосферные явления, наблюдавшиеся в срок или в последний час перед сроком; фигурными скобками обозначены явления, наблюдавшиеся между сроками (за 1-3 часа до срока); квадратными скобками обозначены град или гололедные отложения с указанием их диаметра в мм.
Облачность - указаны через наклонную черту общая и нижняя облачность в баллах и высота нижней границы облаков в метрах; квадратными скобками обозначены формы облаков: Ci - перистые, Cs - перисто-слоистые, Cc - перисто-кучевые, Ac - высококучевые, As - высокослоистые, Sc - слоисто-кучевые, Ns - слоисто-дождевые, Cu - кучевые, Cb - кучево-дождевые. Подробнее классификацию облаков см. в Атласе облаков (PDF).
T - Температура воздуха - температура, измеренная на высоте 2 м над землей.
Td - Температура точки росы - температура, при понижении до которой содержащийся в воздухе водяной пар достигнет насыщения.
f - Относительная влажность воздуха - влажноcть воздуха, измеренная на высоте 2 м над землей.
Te - Эффективная температура - температура, которую ощущает одетый по сезону человек в тени. Характеристика душности погоды. При расчете учитывается влияние влажности воздуха и скорости ветра на теплоощущения человека.
Tes - Эффективная температура на солнце - температура, которую ощущает человек, с поправкой на солнечный нагрев. Характеристика знойности погоды. Зависит от высоты солнца над горизонтом, облачности и скорости ветра. Ночью, в пасмурную погоду, а также при ветре 12 м/с и более поправка равна нулю.
P - Атмосферное давление - приведенное к уровню моря атмосферное давление.
Po - Атмосферное давление - измеренное на уровне метеостанции атмосферное давление.
Tmin - Минимальная температура - минимум температуры воздуха на высоте 2 м над землей.
Tmax - Максимальная температура - максимум температуры воздуха на высоте 2 м над землей.
R - Количество осадков - Количество выпавших осадков за период времени, мм. При наведении курсора мыши на число - период времени, за который выпало указанное количество осадков.
R24 - Количество осадков - Количество выпавших осадков за 24 часа, мм.
S - Снежный покров - Высота снежного покрова, см. При наведении курсора мыши на число - состояние снежного покрова и степень покрытия местности в баллах.